,,,PA_Meas_PMT16A,,PR_Meas_QMR101_102,,RH_Meas_QMH101,,SR_Meas_QMS101,,TA_Meas_QMH101,,GenWind,,GenWind,
date,time,status,PA,status,PR,status,RH,status,SR,status,TA,status,DirAvg,status,SpdAvg,
2010-03-08, 00:00:04,VALID,1003.71,VALID,0,VALID,91.4868,VALID,0,VALID,24.2671,VALID,327,VALID,0.944141,
2010-03-08, 00:01:04,VALID,1003.7,VALID,0,VALID,91.4563,VALID,0,VALID,24.2671,VALID,320,VALID,0.829297,
2010-03-08, 00:02:04,VALID,1003.69,VALID,0,VALID,91.441,VALID,0,VALID,24.2671,VALID,305,VALID,0.933594,
2010-03-08, 00:03:04,VALID,1003.69,VALID,0,VALID,91.5249,VALID,0,VALID,24.2671,VALID,299,VALID,1.01484,
2010-03-08, 00:04:04,VALID,1003.69,VALID,0,VALID,91.4639,VALID,0,VALID,24.2671,VALID,324,VALID,0.739844,
2010-03-08, 00:05:04,VALID,1003.69,VALID,0,VALID,91.6546,VALID,0,VALID,24.3062,VALID,317,VALID,0.865234,
2010-03-08, 00:06:04,VALID,1003.67,VALID,0,VALID,91.4868,VALID,0,VALID,24.3062,VALID,316,VALID,0.492969,
2010-03-08, 00:07:04,VALID,1003.64,VALID,0,VALID,91.4334,VALID,0,VALID,24.2866,VALID,316,VALID,0.504687,
2010-03-08, 00:08:04,VALID,1003.64,VALID,0,VALID,91.5097,VALID,0,VALID,24.3257,VALID,316,VALID,0.437109,
2010-03-08, 00:09:04,VALID,1003.64,VALID,0,VALID,91.5173,VALID,0,VALID,24.3257,VALID,316,VALID,0.277734,
2010-03-08, 00:10:04,VALID,1003.64,VALID,0,VALID,91.4944,VALID,0,VALID,24.3452,VALID,316,VALID,0.262891,
2010-03-08, 00:11:04,VALID,1003.61,VALID,0,VALID,91.441,VALID,0,VALID,24.3257,VALID,316,VALID,0,
2010-03-08, 00:12:04,VALID,1003.61,VALID,0,VALID,91.38,VALID,0,VALID,24.3062,VALID,316,VALID,0,
2010-03-08, 00:13:04,VALID,1003.59,VALID,0,VALID,91.441,VALID,0,VALID,24.3062,VALID,316,VALID,0,
2010-03-08, 00:14:04,VALID,1003.57,VALID,0,VALID,91.5631,VALID,0,VALID,24.3452,VALID,316,VALID,0.373437,
2010-03-08, 00:15:04,VALID,1003.55,VALID,0,VALID,91.4563,VALID,0,VALID,24.3452,VALID,316,VALID,0.244141,
2010-03-08, 00:16:04,VALID,1003.53,VALID,0,VALID,91.4257,VALID,0,VALID,24.3452,VALID,316,VALID,0,
2010-03-08, 00:17:04,VALID,1003.5,VALID,0,VALID,90.9451,VALID,0,VALID,24.2671,VALID,343,VALID,0.65625,
2010-03-08, 00:18:04,VALID,1003.51,VALID,0,VALID,91.1206,VALID,0,VALID,24.2086,VALID,348,VALID,0.504297,
2010-03-08, 00:19:04,VALID,1003.45,VALID,0,VALID,91.0137,VALID,0,VALID,24.15,VALID,348,VALID,0.441016,
2010-03-08, 00:20:04,VALID,1003.48,VALID,0,VALID,91.2503,VALID,0,VALID,24.111,VALID,348,VALID,0.185937,
2010-03-08, 00:21:04,VALID,1003.43,VALID,0,VALID,91.4563,VALID,0,VALID,24.111,VALID,348,VALID,0,
2010-03-08, 00:22:04,VALID,1003.46,VALID,0,VALID,91.441,VALID,0,VALID,24.0915,VALID,348,VALID,0,
2010-03-08, 00:23:04,VALID,1003.44,VALID,0,VALID,91.2503,VALID,0,VALID,24.072,VALID,348,VALID,0,
2010-03-08, 00:24:04,VALID,1003.45,VALID,0,VALID,91.3571,VALID,0,VALID,23.9939,VALID,348,VALID,0,
2010-03-08, 00:25:04,VALID,1003.43,VALID,0,VALID,91.441,VALID,0,VALID,23.9744,VALID,348,VALID,0,
2010-03-08, 00:26:04,VALID,1003.45,VALID,0,VALID,91.7004,VALID,0,VALID,23.9939,VALID,348,VALID,0,
2010-03-08, 00:27:04,VALID,1003.42,VALID,0,VALID,91.792,VALID,0,VALID,23.9939,VALID,348,VALID,0,
2010-03-08, 00:28:04,VALID,1003.44,VALID,0,VALID,91.853,VALID,0,VALID,23.9921,VALID,348,VALID,0,
2010-03-08, 00:29:04,VALID,1003.42,VALID,0,VALID,91.853,VALID,0,VALID,24.0134,VALID,348,VALID,0,
2010-03-08, 00:30:04,VALID,1003.45,VALID,0,VALID,91.7767,VALID,0,VALID,23.9744,VALID,348,VALID,0,
2010-03-08, 00:31:04,VALID,1003.43,VALID,0,VALID,91.8225,VALID,0,VALID,23.9744,VALID,348,VALID,0,
2010-03-08, 00:32:04,VALID,1003.39,VALID,0,VALID,91.9369,VALID,0,VALID,23.9336,VALID,348,VALID,0,
2010-03-08, 00:33:04,VALID,1003.41,VALID,0,VALID,91.9369,VALID,0,VALID,23.9549,VALID,348,VALID,0,
2010-03-08, 00:34:04,VALID,1003.39,VALID,0,VALID,92.1048,VALID,0,VALID,23.9762,VALID,348,VALID,0,
2010-03-08, 00:35:04,VALID,1003.34,VALID,0,VALID,92.0514,VALID,0,VALID,23.9549,VALID,348,VALID,0,
2010-03-08, 00:36:04,VALID,1003.38,VALID,0,VALID,92.1429,VALID,0,VALID,23.9744,VALID,348,VALID,0,
2010-03-08, 00:37:04,VALID,1003.36,VALID,0,VALID,92.0666,VALID,0,VALID,23.9549,VALID,348,VALID,0,
2010-03-08, 00:38:04,VALID,1003.38,VALID,0,VALID,92.059,VALID,0,VALID,23.9549,VALID,348,VALID,0,
2010-03-08, 00:39:04,VALID,1003.38,VALID,0,VALID,91.8072,VALID,0,VALID,23.8963,VALID,348,VALID,0,
2010-03-08, 00:40:04,VALID,1003.36,VALID,0,VALID,92.3566,VALID,0,VALID,23.9159,VALID,348,VALID,0,
2010-03-08, 00:41:04,VALID,1003.37,VALID,0,VALID,92.4481,VALID,0,VALID,23.9744,VALID,348,VALID,0,
2010-03-08, 00:42:04,VALID,1003.35,VALID,0,VALID,92.4634,VALID,0,VALID,24.0134,VALID,348,VALID,0,
2010-03-08, 00:43:04,VALID,1003.35,VALID,0,VALID,92.4023,VALID,0,VALID,24.0525,VALID,340,VALID,0.976563,
2010-03-08, 00:44:04,VALID,1003.37,VALID,0,VALID,92.1658,VALID,0,VALID,24.0153,VALID,340,VALID,0.814062,
2010-03-08, 00:45:04,VALID,1003.32,VALID,0,VALID,92.204,VALID,0,VALID,23.9744,VALID,340,VALID,0.570703,
2010-03-08, 00:46:04,VALID,1003.33,VALID,0,VALID,92.1277,VALID,0,VALID,23.9549,VALID,340,VALID,0.602734,
2010-03-08, 00:47:04,VALID,1003.31,VALID,0,VALID,92.1734,VALID,0,VALID,23.9159,VALID,353,VALID,0.453516,
2010-03-08, 00:48:04,VALID,1003.26,VALID,0,VALID,92.2497,VALID,0,VALID,23.9159,VALID,353,VALID,0.476563,
2010-03-08, 00:49:04,VALID,1003.23,VALID,0,VALID,92.265,VALID,0,VALID,23.9159,VALID,353,VALID,0,
2010-03-08, 00:50:04,VALID,1003.22,VALID,0,VALID,92.3642,VALID,0,VALID,23.9159,VALID,353,VALID,0,
2010-03-08, 00:51:04,VALID,1003.22,VALID,0,VALID,92.5168,VALID,0,VALID,23.9957,VALID,353,VALID,0,
2010-03-08, 00:52:04,VALID,1003.2,VALID,0,VALID,92.1811,VALID,0,VALID,23.9354,VALID,354,VALID,0,
2010-03-08, 00:53:04,VALID,1003.21,VALID,0,VALID,91.5554,VALID,0,VALID,23.7988,VALID,66,VALID,0,
2010-03-08, 00:54:04,VALID,1003.2,VALID,0,VALID,91.9445,VALID,0,VALID,23.7207,VALID,66,VALID,0,
2010-03-08, 00:55:04,VALID,1003.21,VALID,0,VALID,92.2803,VALID,0,VALID,23.7793,VALID,66,VALID,0,
2010-03-08, 00:56:04,VALID,1003.22,VALID,0,VALID,92.41,VALID,0,VALID,23.8183,VALID,66,VALID,0,
2010-03-08, 00:57:04,VALID,1003.25,VALID,0,VALID,92.1124,VALID,0,VALID,23.7597,VALID,66,VALID,0,
2010-03-08, 00:58:04,VALID,1003.2,VALID,0,VALID,92.3642,VALID,0,VALID,23.7793,VALID,66,VALID,0,
2010-03-08, 00:59:04,VALID,1003.23,VALID,0,VALID,92.4252,VALID,0,VALID,23.7988,VALID,66,VALID,0,
2010-03-08, 01:00:04,VALID,1003.25,VALID,0,VALID,92.3871,VALID,0,VALID,23.7988,VALID,66,VALID,0,
2010-03-08, 01:01:04,VALID,1003.24,VALID,0,VALID,92.4405,VALID,0,VALID,23.7988,VALID,66,VALID,0,
2010-03-08, 01:02:04,VALID,1003.2,VALID,0,VALID,92.4176,VALID,0,VALID,23.8183,VALID,21,VALID,0.358594,
2010-03-08, 01:03:04,VALID,1003.2,VALID,0,VALID,92.532,VALID,0,VALID,23.8183,VALID,351,VALID,0.875,
2010-03-08, 01:04:04,VALID,1003.17,VALID,0,VALID,92.616,VALID,0,VALID,23.8768,VALID,350,VALID,0.585547,
2010-03-08, 01:05:04,VALID,1003.16,VALID,0,VALID,92.6694,VALID,0,VALID,23.9336,VALID,299,VALID,0.485547,
2010-03-08, 01:06:04,VALID,1003.14,VALID,0,VALID,92.6617,VALID,0,VALID,23.9744,VALID,299,VALID,0.529297,
2010-03-08, 01:07:04,VALID,1003.12,VALID,0,VALID,92.5244,VALID,0,VALID,23.9549,VALID,295,VALID,0.54375,
2010-03-08, 01:08:04,VALID,1003.12,VALID,0,VALID,92.3413,VALID,0,VALID,23.9549,VALID,295,VALID,0.0515625,
2010-03-08, 01:09:04,VALID,1003.09,VALID,0,VALID,91.5402,VALID,0,VALID,23.7793,VALID,49,VALID,0.863281,
2010-03-08, 01:10:04,VALID,1003.08,VALID,0,VALID,92.3184,VALID,0,VALID,23.7793,VALID,49,VALID,0.416016,
2010-03-08, 01:11:04,VALID,1003.06,VALID,0,VALID,92.5091,VALID,0,VALID,23.8183,VALID,94,VALID,0.28125,
2010-03-08, 01:12:04,VALID,1003.09,VALID,0,VALID,92.6617,VALID,0,VALID,23.9354,VALID,186,VALID,0.532422,
2010-03-08, 01:13:04,VALID,1003.09,VALID,0,VALID,92.4634,VALID,0,VALID,23.9549,VALID,193,VALID,0.141016,
2010-03-08, 01:14:04,VALID,1003.09,VALID,0,VALID,91.8759,VALID,0,VALID,23.8573,VALID,29,VALID,0.337891,
2010-03-08, 01:15:04,VALID,1003.11,VALID,0,VALID,91.853,VALID,0,VALID,23.7597,VALID,21,VALID,0.142188,
2010-03-08, 01:16:04,VALID,1003.11,VALID,0,VALID,91.8225,VALID,0,VALID,23.7207,VALID,21,VALID,0,
2010-03-08, 01:17:04,VALID,1003.06,VALID,0,VALID,91.8988,VALID,0,VALID,23.6835,VALID,21,VALID,0,
2010-03-08, 01:18:04,VALID,1003.07,VALID,0,VALID,92.0514,VALID,0,VALID,23.6622,VALID,21,VALID,0,
2010-03-08, 01:19:04,VALID,1003.03,VALID,0,VALID,92.1887,VALID,0,VALID,23.6817,VALID,21,VALID,0,
2010-03-08, 01:20:04,VALID,1003.02,VALID,0,VALID,92.3642,VALID,0,VALID,23.7616,VALID,230,VALID,0.773047,
2010-03-08, 01:21:04,VALID,1003.04,VALID,0,VALID,92.5854,VALID,0,VALID,23.8786,VALID,234,VALID,0.9625,
2010-03-08, 01:22:04,VALID,1003.04,VALID,0,VALID,92.6694,VALID,0,VALID,23.9354,VALID,231,VALID,0.736719,
2010-03-08, 01:23:04,VALID,1003.02,VALID,0,VALID,92.5702,VALID,0,VALID,23.9744,VALID,231,VALID,0.753516,
2010-03-08, 01:24:04,VALID,1003.02,VALID,0,VALID,92.5244,VALID,0,VALID,23.9744,VALID,231,VALID,0.217578,
2010-03-08, 01:25:04,VALID,1003.01,VALID,0,VALID,92.3794,VALID,0,VALID,23.9939,VALID,231,VALID,0.182812,
2010-03-08, 01:26:04,VALID,1002.98,VALID,0,VALID,91.914,VALID,0,VALID,23.9159,VALID,339,VALID,0.559375,
2010-03-08, 01:27:04,VALID,1002.96,VALID,0,VALID,91.8683,VALID,0,VALID,23.8183,VALID,339,VALID,0.479688,
2010-03-08, 01:28:04,VALID,1002.96,VALID,0,VALID,92.204,VALID,0,VALID,23.8378,VALID,339,VALID,0.603125,
2010-03-08, 01:29:04,VALID,1002.94,VALID,0,VALID,92.4405,VALID,0,VALID,23.8963,VALID,289,VALID,0.498828,
2010-03-08, 01:30:04,VALID,1002.9,VALID,0,VALID,92.4328,VALID,0,VALID,23.9354,VALID,288,VALID,0.610937,
2010-03-08, 01:31:04,VALID,1002.9,VALID,0,VALID,92.3184,VALID,0,VALID,23.9354,VALID,287,VALID,0.433984,
2010-03-08, 01:32:04,VALID,1002.9,VALID,0,VALID,92.2955,VALID,0,VALID,23.9354,VALID,286,VALID,0.285937,
2010-03-08, 01:33:04,VALID,1002.86,VALID,0,VALID,92.3108,VALID,0,VALID,23.9354,VALID,264,VALID,0.301953,
2010-03-08, 01:34:04,VALID,1002.87,VALID,0,VALID,92.204,VALID,0,VALID,23.9159,VALID,198,VALID,0.377344,
2010-03-08, 01:35:04,VALID,1002.88,VALID,0,VALID,92.0361,VALID,0,VALID,23.8963,VALID,198,VALID,0.365234,
2010-03-08, 01:36:04,VALID,1002.88,VALID,0,VALID,91.8911,VALID,0,VALID,23.8378,VALID,198,VALID,0.00195313,
2010-03-08, 01:37:04,VALID,1002.84,VALID,0,VALID,92.0514,VALID,0,VALID,23.8183,VALID,198,VALID,0,
2010-03-08, 01:38:04,VALID,1002.82,VALID,0,VALID,92.1963,VALID,0,VALID,23.8573,VALID,198,VALID,0,
2010-03-08, 01:39:04,VALID,1002.82,VALID,0,VALID,92.2879,VALID,0,VALID,23.8963,VALID,198,VALID,0,
2010-03-08, 01:40:04,VALID,1002.8,VALID,0,VALID,92.4023,VALID,0,VALID,23.9549,VALID,198,VALID,0.355859,
2010-03-08, 01:41:04,VALID,1002.79,VALID,0,VALID,92.3566,VALID,0,VALID,23.9939,VALID,198,VALID,0.199609,
2010-03-08, 01:42:04,VALID,1002.83,VALID,0,VALID,91.7157,VALID,0,VALID,23.9177,VALID,165,VALID,0.455859,
2010-03-08, 01:43:04,VALID,1002.84,VALID,0,VALID,91.6851,VALID,0,VALID,23.8591,VALID,86,VALID,0.856641,
2010-03-08, 01:44:04,VALID,1002.83,VALID,0,VALID,91.708,VALID,0,VALID,23.8201,VALID,86,VALID,0.00585938,
2010-03-08, 01:45:04,VALID,1002.87,VALID,0,VALID,91.7233,VALID,0,VALID,23.7616,VALID,86,VALID,0,
2010-03-08, 01:46:04,VALID,1002.86,VALID,0,VALID,91.8911,VALID,0,VALID,23.7402,VALID,86,VALID,0,
2010-03-08, 01:47:04,VALID,1002.87,VALID,0,VALID,92.2421,VALID,0,VALID,23.8378,VALID,160,VALID,0,
2010-03-08, 01:48:04,VALID,1002.88,VALID,0,VALID,92.1658,VALID,0,VALID,23.8963,VALID,213,VALID,0,
2010-03-08, 01:49:04,VALID,1002.88,VALID,0,VALID,91.7309,VALID,0,VALID,23.8573,VALID,201,VALID,0,
2010-03-08, 01:50:04,VALID,1002.92,VALID,0,VALID,91.8683,VALID,0,VALID,23.8183,VALID,115,VALID,0.448828,
2010-03-08, 01:51:04,VALID,1002.9,VALID,0,VALID,91.7385,VALID,0,VALID,23.7988,VALID,115,VALID,0.424219,
2010-03-08, 01:52:04,VALID,1002.91,VALID,0,VALID,91.8835,VALID,0,VALID,23.8183,VALID,115,VALID,0.00585938,
2010-03-08, 01:53:04,VALID,1002.88,VALID,0,VALID,91.8759,VALID,0,VALID,23.8591,VALID,115,VALID,0,
2010-03-08, 01:54:04,VALID,1002.85,VALID,0,VALID,91.6317,VALID,0,VALID,23.8183,VALID,115,VALID,0,
2010-03-08, 01:55:04,VALID,1002.87,VALID,0,VALID,91.5173,VALID,0,VALID,23.7793,VALID,115,VALID,0,
2010-03-08, 01:56:04,VALID,1002.88,VALID,0,VALID,91.1816,VALID,0,VALID,23.7012,VALID,115,VALID,0,
2010-03-08, 01:57:04,VALID,1002.89,VALID,0,VALID,91.2579,VALID,0,VALID,23.6427,VALID,99,VALID,0.996875,
2010-03-08, 01:58:04,VALID,1002.92,VALID,0,VALID,91.4181,VALID,0,VALID,23.625,VALID,99,VALID,0.942969,
2010-03-08, 01:59:04,VALID,1002.96,VALID,0,VALID,91.7233,VALID,0,VALID,23.6232,VALID,112,VALID,0.554297,
2010-03-08, 02:00:04,VALID,1002.93,VALID,0,VALID,91.7233,VALID,0,VALID,23.6427,VALID,112,VALID,0.287109,
2010-03-08, 02:01:04,VALID,1002.93,VALID,0,VALID,91.586,VALID,0,VALID,23.6036,VALID,112,VALID,0,
2010-03-08, 02:02:04,VALID,1002.92,VALID,0,VALID,91.5097,VALID,0,VALID,23.5841,VALID,112,VALID,0,
2010-03-08, 02:03:04,VALID,1002.93,VALID,0,VALID,91.6088,VALID,0,VALID,23.5646,VALID,112,VALID,0,
2010-03-08, 02:04:04,VALID,1002.89,VALID,0,VALID,91.7004,VALID,0,VALID,23.5841,VALID,112,VALID,0,
2010-03-08, 02:05:04,VALID,1002.91,VALID,0,VALID,91.6623,VALID,0,VALID,23.5841,VALID,112,VALID,0,
2010-03-08, 02:06:04,VALID,1002.94,VALID,0,VALID,91.7233,VALID,0,VALID,23.5646,VALID,112,VALID,0,
2010-03-08, 02:07:04,VALID,1002.91,VALID,0,VALID,91.9445,VALID,0,VALID,23.5859,VALID,111,VALID,0,
2010-03-08, 02:08:04,VALID,1002.93,VALID,0,VALID,91.586,VALID,0,VALID,23.5451,VALID,35,VALID,0.797266,
2010-03-08, 02:09:04,VALID,1002.94,VALID,0,VALID,91.9751,VALID,0,VALID,23.5646,VALID,35,VALID,0.492188,
2010-03-08, 02:10:04,VALID,1002.9,VALID,0,VALID,92.1887,VALID,0,VALID,23.6036,VALID,35,VALID,0.307422,
2010-03-08, 02:11:04,VALID,1002.9,VALID,0,VALID,92.2116,VALID,0,VALID,23.6427,VALID,37,VALID,0.559766,
2010-03-08, 02:12:04,VALID,1002.9,VALID,0,VALID,92.2879,VALID,0,VALID,23.7207,VALID,86,VALID,0.671094,
2010-03-08, 02:13:04,VALID,1002.89,VALID,0,VALID,92.2726,VALID,0,VALID,23.742,VALID,86,VALID,0.680078,
2010-03-08, 02:14:04,VALID,1002.87,VALID,0,VALID,92.2726,VALID,0,VALID,23.7793,VALID,86,VALID,0.607422,
2010-03-08, 02:15:04,VALID,1002.83,VALID,0,VALID,92.3108,VALID,0,VALID,23.7988,VALID,86,VALID,0.622656,
2010-03-08, 02:16:04,VALID,1002.84,VALID,0,VALID,92.2116,VALID,0,VALID,23.8183,VALID,86,VALID,0.583984,
2010-03-08, 02:17:04,VALID,1002.82,VALID,0,VALID,92.0209,VALID,0,VALID,23.7988,VALID,86,VALID,0.844531,
2010-03-08, 02:18:04,VALID,1002.81,VALID,0,VALID,91.8988,VALID,0,VALID,23.7384,VALID,74,VALID,0.906641,
2010-03-08, 02:19:04,VALID,1002.8,VALID,0,VALID,91.6241,VALID,0,VALID,23.7207,VALID,74,VALID,0.777734,
2010-03-08, 02:20:04,VALID,1002.78,VALID,0,VALID,91.5936,VALID,0,VALID,23.6232,VALID,73,VALID,0.810547,
2010-03-08, 02:21:04,VALID,1002.81,VALID,0,VALID,91.4181,VALID,0,VALID,23.5433,VALID,73,VALID,0.491016,
2010-03-08, 02:22:04,VALID,1002.79,VALID,0,VALID,91.4334,VALID,0,VALID,23.4458,VALID,73,VALID,0.571484,
2010-03-08, 02:23:04,VALID,1002.77,VALID,0,VALID,91.5631,VALID,0.112286,VALID,23.4085,VALID,73,VALID,0.340625,
2010-03-08, 02:24:04,VALID,1002.74,VALID,0,VALID,91.5707,VALID,0,VALID,23.3695,VALID,73,VALID,0.149219,
2010-03-08, 02:25:04,VALID,1002.72,VALID,0,VALID,91.5707,VALID,0,VALID,23.2915,VALID,73,VALID,0,
2010-03-08, 02:26:04,VALID,1002.7,VALID,0,VALID,91.7767,VALID,0,VALID,23.2524,VALID,73,VALID,0.19375,
2010-03-08, 02:27:04,VALID,1002.67,VALID,0,VALID,91.9217,VALID,0,VALID,23.2507,VALID,73,VALID,0.302344,
2010-03-08, 02:28:04,VALID,1002.69,VALID,0,VALID,92.0743,VALID,0,VALID,23.2702,VALID,39,VALID,0.45625,
2010-03-08, 02:29:04,VALID,1002.68,VALID,0,VALID,92.2116,VALID,0,VALID,23.3092,VALID,12,VALID,0.399609,
2010-03-08, 02:30:04,VALID,1002.63,VALID,0,VALID,92.2116,VALID,0,VALID,23.3305,VALID,12,VALID,0.270703,
2010-03-08, 02:31:04,VALID,1002.66,VALID,0,VALID,92.2192,VALID,0.112286,VALID,23.3305,VALID,12,VALID,0,
2010-03-08, 02:32:04,VALID,1002.62,VALID,0,VALID,92.1887,VALID,0.112286,VALID,23.3092,VALID,12,VALID,0,
2010-03-08, 02:33:04,VALID,1002.67,VALID,0,VALID,92.1506,VALID,0,VALID,23.2897,VALID,12,VALID,0,
2010-03-08, 02:34:04,VALID,1002.68,VALID,0,VALID,92.1887,VALID,0,VALID,23.311,VALID,12,VALID,0.0875,
2010-03-08, 02:35:04,VALID,1002.68,VALID,0,VALID,92.3184,VALID,0,VALID,23.2702,VALID,12,VALID,0.369141,
2010-03-08, 02:36:04,VALID,1002.67,VALID,0,VALID,92.4786,VALID,0,VALID,23.3287,VALID,12,VALID,0.314453,
2010-03-08, 02:37:04,VALID,1002.67,VALID,0,VALID,92.4786,VALID,0.112286,VALID,23.3695,VALID,12,VALID,0.161719,
2010-03-08, 02:38:04,VALID,1002.66,VALID,0,VALID,92.3947,VALID,0,VALID,23.35,VALID,12,VALID,0,
2010-03-08, 02:39:04,VALID,1002.65,VALID,0,VALID,92.2879,VALID,0,VALID,23.3092,VALID,12,VALID,0,
2010-03-08, 02:40:04,VALID,1002.64,VALID,0,VALID,92.1963,VALID,0.112286,VALID,23.2702,VALID,12,VALID,0,
2010-03-08, 02:41:04,VALID,1002.63,VALID,0,VALID,92.3871,VALID,0,VALID,23.2897,VALID,12,VALID,0,
2010-03-08, 02:42:04,VALID,1002.67,VALID,0,VALID,92.616,VALID,0,VALID,23.35,VALID,12,VALID,0,
2010-03-08, 02:43:04,VALID,1002.67,VALID,0,VALID,92.5626,VALID,0,VALID,23.35,VALID,12,VALID,0.225781,
2010-03-08, 02:44:04,VALID,1002.7,VALID,0,VALID,92.3947,VALID,0.112286,VALID,23.3287,VALID,12,VALID,0,
2010-03-08, 02:45:04,VALID,1002.65,VALID,0,VALID,92.3718,VALID,0,VALID,23.2702,VALID,12,VALID,0,
2010-03-08, 02:46:04,VALID,1002.68,VALID,0,VALID,92.4786,VALID,0,VALID,23.2702,VALID,12,VALID,0,
2010-03-08, 02:47:04,VALID,1002.69,VALID,0,VALID,92.4023,VALID,0,VALID,23.2312,VALID,12,VALID,0,
2010-03-08, 02:48:04,VALID,1002.65,VALID,0,VALID,92.5854,VALID,0.112286,VALID,23.2117,VALID,12,VALID,0,
2010-03-08, 02:49:04,VALID,1002.67,VALID,0,VALID,92.7151,VALID,0,VALID,23.2312,VALID,12,VALID,0,
2010-03-08, 02:50:04,VALID,1002.66,VALID,0,VALID,92.6083,VALID,0,VALID,23.2329,VALID,12,VALID,0,
2010-03-08, 02:51:04,VALID,1002.68,VALID,0,VALID,92.6541,VALID,0,VALID,23.2117,VALID,12,VALID,0,
2010-03-08, 02:52:04,VALID,1002.71,VALID,0,VALID,92.616,VALID,0,VALID,23.2134,VALID,12,VALID,0,
2010-03-08, 02:53:04,VALID,1002.67,VALID,0,VALID,92.616,VALID,0,VALID,23.1939,VALID,12,VALID,0,
2010-03-08, 02:54:04,VALID,1002.7,VALID,0,VALID,92.5549,VALID,0,VALID,23.1549,VALID,12,VALID,0,
2010-03-08, 02:55:04,VALID,1002.71,VALID,0,VALID,92.5931,VALID,0,VALID,23.0946,VALID,12,VALID,0,
2010-03-08, 02:56:04,VALID,1002.7,VALID,0,VALID,92.6923,VALID,0,VALID,23.1354,VALID,12,VALID,0,
2010-03-08, 02:57:04,VALID,1002.71,VALID,0,VALID,92.677,VALID,0,VALID,23.1141,VALID,12,VALID,0,
2010-03-08, 02:58:04,VALID,1002.67,VALID,0,VALID,92.6388,VALID,0,VALID,23.1159,VALID,12,VALID,0,
2010-03-08, 02:59:04,VALID,1002.68,VALID,0,VALID,92.6694,VALID,0,VALID,23.0964,VALID,12,VALID,0,
2010-03-08, 03:00:04,VALID,1002.64,VALID,0,VALID,92.7228,VALID,0,VALID,23.0964,VALID,12,VALID,0,
2010-03-08, 03:01:04,VALID,1002.66,VALID,0,VALID,92.7151,VALID,0,VALID,23.0751,VALID,12,VALID,0,
2010-03-08, 03:02:04,VALID,1002.66,VALID,0,VALID,92.7533,VALID,0,VALID,23.0964,VALID,12,VALID,0,
2010-03-08, 03:03:04,VALID,1002.7,VALID,0,VALID,92.7533,VALID,0.112286,VALID,23.0751,VALID,12,VALID,0,
2010-03-08, 03:04:04,VALID,1002.69,VALID,0,VALID,92.7762,VALID,0,VALID,23.0946,VALID,12,VALID,0,
2010-03-08, 03:05:04,VALID,1002.71,VALID,0,VALID,92.8296,VALID,0,VALID,23.1549,VALID,12,VALID,0,
2010-03-08, 03:06:04,VALID,1002.71,VALID,0,VALID,92.8296,VALID,0,VALID,23.1336,VALID,12,VALID,0,
2010-03-08, 03:07:04,VALID,1002.74,VALID,0,VALID,92.9364,VALID,0,VALID,23.1336,VALID,12,VALID,0,
2010-03-08, 03:08:04,VALID,1002.73,VALID,0,VALID,92.9822,VALID,0,VALID,23.1921,VALID,12,VALID,0,
2010-03-08, 03:09:04,VALID,1002.74,VALID,0,VALID,92.9898,VALID,0,VALID,23.2134,VALID,12,VALID,0,
2010-03-08, 03:10:04,VALID,1002.73,VALID,0,VALID,93.0127,VALID,0,VALID,23.1921,VALID,12,VALID,0,
2010-03-08, 03:11:04,VALID,1002.69,VALID,0,VALID,92.9974,VALID,0,VALID,23.2329,VALID,12,VALID,0,
2010-03-08, 03:12:04,VALID,1002.69,VALID,0,VALID,92.9898,VALID,0,VALID,23.2329,VALID,12,VALID,0,
2010-03-08, 03:13:04,VALID,1002.69,VALID,0,VALID,92.9288,VALID,0,VALID,23.1726,VALID,12,VALID,0,
2010-03-08, 03:14:04,VALID,1002.68,VALID,0,VALID,92.8067,VALID,0,VALID,23.1531,VALID,12,VALID,0,
2010-03-08, 03:15:04,VALID,1002.72,VALID,0,VALID,92.8448,VALID,0,VALID,23.1159,VALID,12,VALID,0,
2010-03-08, 03:16:04,VALID,1002.74,VALID,0,VALID,92.9288,VALID,0,VALID,23.1354,VALID,12,VALID,0,
2010-03-08, 03:17:04,VALID,1002.73,VALID,0,VALID,92.8372,VALID,0,VALID,23.0769,VALID,12,VALID,0,
2010-03-08, 03:18:04,VALID,1002.76,VALID,0,VALID,92.8983,VALID,0,VALID,23.0573,VALID,12,VALID,0,
2010-03-08, 03:19:04,VALID,1002.76,VALID,0,VALID,92.9974,VALID,0,VALID,23.0769,VALID,12,VALID,0,
2010-03-08, 03:20:04,VALID,1002.78,VALID,0,VALID,93.0127,VALID,0,VALID,23.0751,VALID,12,VALID,0,
2010-03-08, 03:21:04,VALID,1002.76,VALID,0,VALID,92.8448,VALID,0,VALID,22.9988,VALID,12,VALID,0,
2010-03-08, 03:22:04,VALID,1002.78,VALID,0,VALID,93.0508,VALID,0,VALID,23.0183,VALID,12,VALID,0,
2010-03-08, 03:23:04,VALID,1002.8,VALID,0,VALID,93.15,VALID,0,VALID,23.0573,VALID,12,VALID,0,
2010-03-08, 03:24:04,VALID,1002.8,VALID,0,VALID,93.234,VALID,0,VALID,23.1159,VALID,165,VALID,0.382422,
2010-03-08, 03:25:04,VALID,1002.76,VALID,0,VALID,93.2111,VALID,0,VALID,23.1354,VALID,153,VALID,0.190234,
2010-03-08, 03:26:04,VALID,1002.74,VALID,0,VALID,93.1348,VALID,0,VALID,23.1159,VALID,153,VALID,0,
2010-03-08, 03:27:04,VALID,1002.74,VALID,0,VALID,93.3179,VALID,0,VALID,23.2524,VALID,162,VALID,0.241016,
2010-03-08, 03:28:04,VALID,1002.72,VALID,0,VALID,93.0508,VALID,0,VALID,23.1762,VALID,301,VALID,0.609375,
2010-03-08, 03:29:04,VALID,1002.73,VALID,0,VALID,92.8677,VALID,0,VALID,23.0573,VALID,306,VALID,0.341406,
2010-03-08, 03:30:04,VALID,1002.69,VALID,0,VALID,92.8448,VALID,0,VALID,23.0006,VALID,306,VALID,0.539453,
2010-03-08, 03:31:04,VALID,1002.71,VALID,0,VALID,92.9974,VALID,0,VALID,22.9793,VALID,306,VALID,0.288672,
2010-03-08, 03:32:04,VALID,1002.72,VALID,0,VALID,93.0127,VALID,0,VALID,22.9598,VALID,306,VALID,0.0792969,
2010-03-08, 03:33:04,VALID,1002.69,VALID,0,VALID,92.9364,VALID,0,VALID,22.9013,VALID,306,VALID,0,
2010-03-08, 03:34:04,VALID,1002.74,VALID,0,VALID,92.8983,VALID,0,VALID,22.8818,VALID,306,VALID,0,
2010-03-08, 03:35:04,VALID,1002.76,VALID,0,VALID,92.822,VALID,0,VALID,22.8232,VALID,306,VALID,0,
2010-03-08, 03:36:04,VALID,1002.72,VALID,0,VALID,92.9059,VALID,0,VALID,22.7842,VALID,306,VALID,0.552734,
2010-03-08, 03:37:04,VALID,1002.77,VALID,0,VALID,92.9059,VALID,0,VALID,22.7435,VALID,306,VALID,0.285937,
2010-03-08, 03:38:04,VALID,1002.73,VALID,0,VALID,93.0585,VALID,0,VALID,22.7647,VALID,306,VALID,0,
2010-03-08, 03:39:04,VALID,1002.75,VALID,0,VALID,93.1424,VALID,0,VALID,22.8037,VALID,306,VALID,0,
2010-03-08, 03:40:04,VALID,1002.72,VALID,0,VALID,93.1424,VALID,0,VALID,22.7842,VALID,306,VALID,0,
2010-03-08, 03:41:04,VALID,1002.74,VALID,0,VALID,93.089,VALID,0,VALID,22.7842,VALID,306,VALID,0,
2010-03-08, 03:42:04,VALID,1002.73,VALID,0,VALID,93.089,VALID,0,VALID,22.7647,VALID,306,VALID,0,
2010-03-08, 03:43:04,VALID,1002.79,VALID,0,VALID,93.0661,VALID,0,VALID,22.7842,VALID,306,VALID,0,
2010-03-08, 03:44:04,VALID,1002.8,VALID,0,VALID,93.2263,VALID,0,VALID,22.8232,VALID,306,VALID,0,
2010-03-08, 03:45:04,VALID,1002.82,VALID,0,VALID,93.1805,VALID,0,VALID,22.8427,VALID,306,VALID,0,
2010-03-08, 03:46:04,VALID,1002.83,VALID,0,VALID,93.1805,VALID,0,VALID,22.8427,VALID,306,VALID,0,
2010-03-08, 03:47:04,VALID,1002.83,VALID,0,VALID,93.2111,VALID,0,VALID,22.8427,VALID,306,VALID,0,
2010-03-08, 03:48:04,VALID,1002.8,VALID,0,VALID,93.2187,VALID,0,VALID,22.8623,VALID,306,VALID,0,
2010-03-08, 03:49:04,VALID,1002.83,VALID,0,VALID,93.2187,VALID,0,VALID,22.8427,VALID,306,VALID,0,
2010-03-08, 03:50:04,VALID,1002.85,VALID,0,VALID,93.1958,VALID,0,VALID,22.8427,VALID,306,VALID,0,
2010-03-08, 03:51:04,VALID,1002.88,VALID,0,VALID,93.2263,VALID,0,VALID,22.8427,VALID,306,VALID,0,
2010-03-08, 03:52:04,VALID,1002.89,VALID,0,VALID,93.2492,VALID,0,VALID,22.8427,VALID,306,VALID,0,
2010-03-08, 03:53:04,VALID,1002.9,VALID,0,VALID,93.295,VALID,0,VALID,22.8623,VALID,306,VALID,0,